User: anonymous   Login
Location: B�rgermoos
(47.6500°N, 9.0667°E)
Time: 12:00:29
(UTC+00:00)
Language:

Transit 2A Rocket - Orbit

View from above orbital plane
View from above orbital plane
View from above satellite
View from above satellite

Ground track
Ground track

The orbit data is extracted from the following two-line orbital elements,

1    47U 60007C   21214.19489191 -.00000006  00000-0  23668-4 0  9992
2    47  66.6661 136.6982 0227394   0.8119 359.3307 14.42163728194355
Epoch (UTC): 02 August 2021 04:40:38
Eccentricity: 0.0227394
inclination: 66.6661°
perigee height: 589 km
apogee height: 913 km
right ascension of ascending node: 136.6982°
argument of perigee: 0.8119°
revolutions per day: 14.42163728
mean anomaly at epoch: 359.3307°
orbit number at epoch: 19435

The dashed part of the orbit path shows where the satellite is in the earth's shadow,  

DLR